When you browse on this site, cookies collect data to enhance your experience and personalize the content and advertising you see.
Visit our Privacy Policy to learn more. By continuing to use the site, you agree to this use of cookies and data.
  • In Romania
  • List of Countries
  • For 7 days
  • Water Temperature
  • Satellite Maps
  • Weather Map
  • Weather Widgets
  • user-avatar
    Login

    Hourly Weather Akaba

    Today, 26 March, Tuesday

    Time Temperature Precipitation Wind Pressure Humidity
    00:00 +15°C° 0 mm 1 mps 747 mmHg 48%
    01:00 +15°C° 0 mm 1 mps 747 mmHg 49%
    02:00 +14°C° 0 mm 1 mps 747 mmHg 53%
    03:00 +14°C° 0 mm 1 mps 747 mmHg 54%
    04:00 +14°C° 0 mm 1 mps 747 mmHg 55%
    05:00 +13°C° 0 mm 1 mps 748 mmHg 56%
    06:00 +14°C° 0 mm 1 mps 748 mmHg 53%
    07:00 +15°C° 0 mm 2 mps 748 mmHg 50%
    08:00 +16°C° 0 mm 2 mps 749 mmHg 46%
    09:00 +17°C° 0 mm 2 mps 749 mmHg 43%
    10:00 +18°C° 0 mm 2 mps 749 mmHg 39%
    11:00 +19°C° 0 mm 2 mps 748 mmHg 35%
    12:00 +20°C° 0 mm 3 mps 748 mmHg 32%
    13:00 +21°C° 0 mm 3 mps 748 mmHg 30%
    14:00 +22°C° 0 mm 3 mps 748 mmHg 27%
    15:00 +22°C° 0 mm 4 mps 748 mmHg 27%
    16:00 +22°C° 0 mm 4 mps 748 mmHg 27%
    17:00 +22°C° 0 mm 5 mps 748 mmHg 26%
    18:00 +21°C° 0 mm 4 mps 749 mmHg 29%
    19:00 +20°C° 0 mm 4 mps 750 mmHg 33%
    20:00 +20°C° 0 mm 3 mps 750 mmHg 36%
    21:00 +19°C° 0 mm 2 mps 750 mmHg 38%
    22:00 +19°C° 0 mm 1 mps 751 mmHg 41%
    23:00 +17°C° 0 mm 0 mps 751 mmHg 44%

    Tomorrow, 27 March, Wednesday

    Time Temperature Precipitation Wind Pressure Humidity
    00:00 +19°C° 0 mm 1 mps 751 mmHg 44%
    01:00 +18°C° 0 mm 1 mps 751 mmHg 43%
    02:00 +17°C° 0 mm 2 mps 751 mmHg 43%
    03:00 +17°C° 0 mm 2 mps 751 mmHg 44%
    04:00 +17°C° 0 mm 2 mps 751 mmHg 46%
    05:00 +16°C° 0 mm 2 mps 751 mmHg 47%
    06:00 +17°C° 0 mm 2 mps 752 mmHg 46%
    07:00 +18°C° 0 mm 2 mps 752 mmHg 44%
    08:00 +19°C° 0 mm 2 mps 753 mmHg 43%
    09:00 +20°C° 0 mm 3 mps 753 mmHg 36%
    10:00 +21°C° 0 mm 4 mps 753 mmHg 30%
    11:00 +22°C° 0 mm 5 mps 753 mmHg 23%
    12:00 +23°C° 0 mm 5 mps 753 mmHg 22%
    13:00 +23°C° 0 mm 6 mps 752 mmHg 20%
    14:00 +24°C° 0 mm 6 mps 752 mmHg 19%
    15:00 +23°C° 0 mm 6 mps 752 mmHg 20%
    16:00 +23°C° 0 mm 6 mps 752 mmHg 21%
    17:00 +23°C° 0 mm 6 mps 752 mmHg 21%
    18:00 +22°C° 0 mm 5 mps 753 mmHg 25%
    19:00 +21°C° 0 mm 3 mps 753 mmHg 28%
    20:00 +20°C° 0 mm 2 mps 753 mmHg 31%
    21:00 +21°C° 0 mm 1 mps 753 mmHg 32%
    22:00 +20°C° 0 mm 1 mps 754 mmHg 34%
    23:00 +19°C° 0 mm 1 mps 754 mmHg 36%

    Day after tomorrow, 28 March, Thursday

    Time Temperature Precipitation Wind Pressure Humidity
    00:00 +19°C° 0 mm 1 mps 753 mmHg 37%
    01:00 +18°C° 0 mm 1 mps 753 mmHg 38%
    02:00 +18°C° 0 mm 1 mps 753 mmHg 38%
    03:00 +18°C° 0 mm 1 mps 753 mmHg 39%
    04:00 +16°C° 0 mm 1 mps 753 mmHg 40%
    05:00 +16°C° 0 mm 1 mps 753 mmHg 41%
    06:00 +18°C° 0 mm 1 mps 753 mmHg 39%
    07:00 +19°C° 0 mm 1 mps 754 mmHg 37%
    08:00 +20°C° 0 mm 1 mps 754 mmHg 35%
    09:00 +21°C° 0 mm 1 mps 753 mmHg 32%
    10:00 +23°C° 0 mm 1 mps 753 mmHg 28%
    11:00 +22°C° 0 mm 0 mps 753 mmHg 25%
    12:00 +25°C° 0 mm 1 mps 752 mmHg 23%
    13:00 +26°C° 0 mm 1 mps 752 mmHg 20%
    14:00 +26°C° 0 mm 1 mps 751 mmHg 18%
    15:00 +26°C° 0 mm 1 mps 751 mmHg 17%
    16:00 +26°C° 0 mm 1 mps 750 mmHg 17%
    17:00 +26°C° 0 mm 1 mps 750 mmHg 16%
    18:00 +26°C° 0 mm 1 mps 750 mmHg 18%
    19:00 +25°C° 0 mm 1 mps 750 mmHg 19%
    20:00 +22°C° 0 mm 0 mps 751 mmHg 20%
    21:00 +23°C° 0 mm 1 mps 751 mmHg 20%
    22:00 +23°C° 0 mm 1 mps 751 mmHg 20%
    23:00 +22°C° 0 mm 1 mps 750 mmHg 21%

    29 March, Friday

    Time Temperature Precipitation Wind Pressure Humidity
    00:00 +22°C° 0 mm 1 mps 750 mmHg 21%
    01:00 +22°C° 0 mm 1 mps 750 mmHg 21%
    02:00 +21°C° 0 mm 1 mps 749 mmHg 22%
    03:00 +21°C° 0 mm 1 mps 749 mmHg 22%
    04:00 +21°C° 0 mm 1 mps 749 mmHg 22%
    05:00 +21°C° 0 mm 1 mps 749 mmHg 22%
    06:00 +22°C° 0 mm 1 mps 749 mmHg 21%
    07:00 +23°C° 0 mm 2 mps 749 mmHg 19%
    08:00 +25°C° 0 mm 2 mps 749 mmHg 18%
    09:00 +26°C° 0 mm 2 mps 748 mmHg 17%
    10:00 +28°C° 0 mm 3 mps 748 mmHg 16%
    11:00 +29°C° 0 mm 4 mps 748 mmHg 16%
    12:00 +29°C° 0 mm 3 mps 747 mmHg 17%
    13:00 +29°C° 0 mm 2 mps 746 mmHg 19%
    14:00 +29°C° 0 mm 1 mps 745 mmHg 20%
    15:00 +29°C° 0 mm 2 mps 745 mmHg 19%
    16:00 +29°C° 0 mm 3 mps 744 mmHg 18%
    17:00 +29°C° 0 mm 4 mps 744 mmHg 17%
    18:00 +29°C° 0 mm 4 mps 744 mmHg 18%
    19:00 +28°C° 0 mm 4 mps 744 mmHg 19%
    20:00 +27°C° 0 mm 5 mps 744 mmHg 20%
    21:00 +27°C° 0 mm 4 mps 744 mmHg 21%
    22:00 +26°C° 0 mm 4 mps 744 mmHg 23%
    23:00 +26°C° 0 mm 3 mps 744 mmHg 24%

    30 March, Saturday

    Time Temperature Precipitation Wind Pressure Humidity
    00:00 +23°C° 0 mm 4 mps 744 mmHg 33%
    01:00 +22°C° 0 mm 4 mps 743 mmHg 41%
    02:00 +21°C° 0 mm 4 mps 743 mmHg 50%
    03:00 +20°C° 0.5 mm 4 mps 743 mmHg 58%
    04:00 +19°C° 0.5 mm 3 mps 744 mmHg 67%
    05:00 +18°C° 0.5 mm 2 mps 744 mmHg 76%
    06:00 +19°C° 0 mm 2 mps 744 mmHg 72%
    07:00 +19°C° 0 mm 2 mps 744 mmHg 69%
    08:00 +19°C° 0 mm 2 mps 745 mmHg 66%
    09:00 +20°C° 0 mm 2 mps 744 mmHg 59%
    10:00 +21°C° 0 mm 2 mps 744 mmHg 53%
    11:00 +23°C° 0 mm 2 mps 744 mmHg 47%
    12:00 +25°C° 0 mm 3 mps 743 mmHg 38%
    13:00 +26°C° 0 mm 5 mps 743 mmHg 30%
    14:00 +27°C° 0 mm 7 mps 742 mmHg 21%
    15:00 +26°C° 0 mm 8 mps 742 mmHg 24%
    16:00 +23°C° 0 mm 8 mps 743 mmHg 26%
    17:00 +22°C° 0 mm 8 mps 743 mmHg 29%
    18:00 +21°C° 0 mm 7 mps 743 mmHg 31%
    19:00 +21°C° 0 mm 5 mps 744 mmHg 33%
    20:00 +20°C° 0 mm 4 mps 745 mmHg 35%
    21:00 +19°C° 0 mm 3 mps 745 mmHg 38%
    22:00 +19°C° 0 mm 3 mps 745 mmHg 41%
    23:00 +18°C° 0 mm 2 mps 745 mmHg 44%

    31 March, Sunday

    Time Temperature Precipitation Wind Pressure Humidity
    00:00 +18°C° 0 mm 2 mps 745 mmHg 46%
    01:00 +17°C° 0 mm 2 mps 745 mmHg 47%
    02:00 +18°C° 0 mm 1 mps 745 mmHg 49%
    03:00 +16°C° 0 mm 2 mps 745 mmHg 49%
    04:00 +16°C° 0 mm 2 mps 745 mmHg 50%
    05:00 +14°C° 0 mm 3 mps 745 mmHg 50%
    06:00 +14°C° 0 mm 3 mps 745 mmHg 48%
    07:00 +16°C° 0 mm 3 mps 745 mmHg 45%
    08:00 +15°C° 0 mm 4 mps 746 mmHg 43%
    09:00 +17°C° 0 mm 4 mps 745 mmHg 41%
    10:00 +17°C° 0 mm 5 mps 745 mmHg 39%
    11:00 +17°C° 0 mm 5 mps 745 mmHg 38%
    12:00 +19°C° 0 mm 6 mps 745 mmHg 37%
    13:00 +19°C° 0 mm 6 mps 744 mmHg 36%
    14:00 +18°C° 0 mm 7 mps 744 mmHg 34%
    15:00 +18°C° 0 mm 8 mps 744 mmHg 34%
    16:00 +17°C° 0 mm 8 mps 745 mmHg 34%
    17:00 +17°C° 0 mm 9 mps 745 mmHg 34%
    18:00 +16°C° 0 mm 8 mps 746 mmHg 36%
    19:00 +16°C° 0 mm 7 mps 746 mmHg 39%
    20:00 +15°C° 0 mm 6 mps 747 mmHg 41%
    21:00 +15°C° 0 mm 5 mps 747 mmHg 44%
    22:00 +14°C° 0 mm 5 mps 747 mmHg 46%
    23:00 +14°C° 0 mm 4 mps 747 mmHg 48%
    Show more